CW3999 Weather Reports


Display with metric or nautical units.
time (UTC)temp
F
wind
direction
speed
MPH
gust
MPH
rain 1hr
in
rain 24hr
in
rain mn
in
humidity
%
barometer
mb
20200705065705 58 317 1.0 7.0 0.00 0.00 0.00 80 1021.0
20200705065206 58 304 2.0 7.0 0.00 0.00 0.00 80 1021.0
20200705064705 58 311 1.0 6.0 0.00 0.00 0.00 80 1021.0
20200705064205 59 316 1.0 6.0 0.00 0.00 0.00 80 1021.1
20200705063704 59 293 1.0 8.0 0.00 0.00 0.00 80 1021.1
20200705063205 59 315 2.0 9.0 0.00 0.00 0.00 79 1021.1
20200705062705 59 304 3.0 9.0 0.00 0.00 0.00 79 1021.1
20200705062205 59 303 3.0 9.0 0.00 0.00 0.00 79 1021.0
20200705061705 59 298 3.0 12.0 0.00 0.00 0.00 79 1021.1
20200705061205 59 328 5.0 12.0 0.00 0.00 0.00 79 1021.1
20200705060705 60 327 6.0 11.0 0.00 0.00 0.00 79 1021.0
20200705060206 60 319 6.0 11.0 0.00 0.00 0.00 78 1021.1
20200705055705 60 309 4.0 9.0 0.00 0.00 0.00 78 1021.0
20200705055205 60 321 3.0 9.0 0.00 0.00 0.00 78 1021.0
20200705054705 60 323 3.0 8.0 0.00 0.00 0.00 78 1021.1
20200705054205 60 324 2.0 8.0 0.00 0.00 0.00 77 1021.0
20200705053706 60 288 3.0 8.0 0.00 0.00 0.00 77 1021.0
20200705053206 61 319 3.0 9.0 0.00 0.00 0.00 77 1020.9
20200705052705 61 310 3.0 11.0 0.00 0.00 0.00 77 1020.9
20200705052205 61 296 4.0 11.0 0.00 0.00 0.00 76 1020.9
20200705051705 61 314 4.0 11.0 0.00 0.00 0.00 76 1020.9
20200705051205 61 315 3.0 8.0 0.00 0.00 0.00 76 1020.8
20200705050705 61 317 3.0 8.0 0.00 0.00 0.00 75 1020.8
20200705050205 62 319 2.0 8.0 0.00 0.00 0.00 74 1020.7
20200705045709 62 314 1.0 4.0 0.00 0.00 0.00 74 1020.7
20200705045206 62 316 1.0 4.0 0.00 0.00 0.00 74 1020.7
20200705044704 62 317 1.0 4.0 0.00 0.00 0.00 73 1020.7
20200705044208 62 317 1.0 5.0 0.00 0.00 0.00 73 1020.6
20200705043705 63 319 0.0 5.0 0.00 0.00 0.00 72 1020.5
20200705043225 63 319 1.0 8.0 0.00 0.00 0.00 72 1020.5
20200705042707 63 320 1.0 8.0 0.00 0.00 0.00 72 1020.4
20200705042229 63 319 2.0 8.0 0.00 0.00 0.00 71 1020.3
20200705041706 64 323 2.0 8.0 0.00 0.00 0.00 71 1020.3
20200705041206 64 328 2.0 8.0 0.00 0.00 0.00 71 1020.2
20200705040724 64 314 2.0 7.0 0.00 0.00 0.00 71 1020.2
20200705040225 64 313 2.0 7.0 0.00 0.00 0.00 70 1020.2
20200705035707 65 306 1.0 8.0 0.00 0.00 0.00 70 1020.1
20200705035206 65 310 2.0 8.0 0.00 0.00 0.00 69 1020.1
20200705034707 65 319 2.0 6.0 0.00 0.00 0.00 69 1020.1
20200705034223 66 323 1.0 6.0 0.00 0.00 0.00 68 1020.1
20200705033732 66 321 1.0 6.0 0.00 0.00 0.00 67 1020.0
20200705033224 66 322 1.0 5.0 0.00 0.00 0.00 66 1020.0
20200705032708 67 325 1.0 9.0 0.00 0.00 0.00 66 1020.0
20200705032207 67 320 2.0 14.0 0.00 0.00 0.00 65 1020.0
20200705031733 67 315 3.0 14.0 0.00 0.00 0.00 65 1020.0
20200705031206 67 284 4.0 14.0 0.00 0.00 0.00 64 1020.1
20200705030733 68 319 4.0 11.0 0.00 0.00 0.00 63 1020.0
20200705030233 68 319 4.0 11.0 0.00 0.00 0.00 63 1020.0
20200705025709 69 321 3.0 8.0 0.00 0.00 0.00 62 1019.9
20200705025207 69 297 2.0 10.0 0.00 0.00 0.00 61 1019.9
20200705024707 69 315 3.0 10.0 0.00 0.00 0.00 61 1019.9
20200705024248 69 300 4.0 10.0 0.00 0.00 0.00 61 1019.9
20200705023711 70 298 3.0 11.0 0.00 0.00 0.00 61 1019.8
20200705023207 70 307 4.0 11.0 0.00 0.00 0.00 61 1019.8
20200705022715 70 324 4.0 11.0 0.00 0.00 0.00 60 1019.8
20200705022207 70 338 4.0 10.0 0.00 0.00 0.00 59 1019.8
20200705021726 70 311 4.0 11.0 0.00 0.00 0.00 59 1019.8
20200705021213 71 301 4.0 13.0 0.00 0.00 0.00 59 1019.8
20200705020729 71 316 5.0 13.0 0.00 0.00 0.00 58 1019.8
20200705020207 71 321 5.0 13.0 0.00 0.00 0.00 56 1019.8
20200705015706 72 319 4.0 9.0 0.00 0.00 0.00 56 1019.7
20200705015207 72 319 3.0 8.0 0.00 0.00 0.00 54 1019.8
20200705014706 72 311 2.0 8.0 0.00 0.00 0.00 53 1019.7
20200705014205 72 312 0.0 6.0 0.00 0.00 0.00 54 1019.7
20200705013731 72 312 1.0 10.0 0.00 0.00 0.00 54 1019.7
20200705013233 72 312 2.0 10.0 0.00 0.00 0.00 54 1019.7
20200705012711 72 312 2.0 10.0 0.00 0.00 0.00 54 1019.8
20200705012209 72 311 2.0 8.0 0.00 0.00 0.00 53 1019.7
20200705011706 73 306 3.0 10.0 0.00 0.00 0.00 52 1019.7
20200705011207 73 309 4.0 10.0 0.00 0.00 0.00 52 1019.7
20200705010710 73 317 3.0 10.0 0.00 0.00 0.00 52 1019.7
20200705010236 74 313 3.0 10.0 0.00 0.00 0.00 50 1019.8
20200705005714 74 322 2.0 8.0 0.00 0.00 0.00 51 1019.7
20200705005214 75 328 1.0 6.0 0.00 0.00 0.00 52 1019.8
20200705004711 75 335 0.0 5.0 0.00 0.00 0.00 50 1019.8
20200705004205 74 335 0.0 5.0 0.00 0.00 0.00 51 1019.8
20200705003713 74 332 0.0 0.0 0.00 0.00 0.00 51 1019.8
20200705003213 73 332 0.0 0.0 0.00 0.00 0.00 52 1019.8
20200705002734 72 332 0.0 3.0 0.00 0.00 0.00 52 1019.9
20200705002228 73 332 0.0 5.0 0.00 0.00 0.00 51 1019.9
20200705001709 73 332 0.0 5.0 0.00 0.00 0.00 50 1020.0
20200705001223 73 332 1.0 9.0 0.00 0.00 0.00 51 1020.1
20200705000726 73 332 2.0 9.0 0.00 0.00 0.00 52 1020.1
20200705000206 73 332 4.0 9.0 0.00 0.00 0.00 52 1020.1
20200704235711 73 332 2.0 9.0 0.00 0.00 0.00 51 1020.2
20200704235223 73 327 0.0 8.0 0.00 0.00 0.00 53 1020.1
20200704234707 73 308 1.0 8.0 0.00 0.00 0.00 53 1020.2
20200704234208 73 308 2.0 6.0 0.00 0.00 0.00 53 1020.3
20200704233705 73 308 1.0 5.0 0.00 0.00 0.00 53 1020.3
20200704233205 73 317 0.0 5.0 0.00 0.00 0.00 55 1020.4
20200704232705 73 317 0.0 3.0 0.00 0.00 0.00 54 1020.5
20200704232206 73 316 0.0 3.0 0.00 0.00 0.00 55 1020.5
20200704231706 73 316 0.0 6.0 0.00 0.00 0.00 54 1020.5
20200704231205 72 316 1.0 6.0 0.00 0.00 0.00 57 1020.5
20200704230705 72 336 1.0 5.0 0.00 0.00 0.00 54 1020.5
20200704230206 72 336 0.0 3.0 0.00 0.00 0.00 55 1020.5
20200704225704 72 336 0.0 6.0 0.00 0.00 0.00 57 1020.6
20200704225205 71 336 1.0 6.0 0.00 0.00 0.00 57 1020.6
20200704224706 71 335 2.0 6.0 0.00 0.00 0.00 58 1020.6
20200704224205 71 335 1.0 6.0 0.00 0.00 0.00 59 1020.6
20200704223714 70 329 0.0 5.0 0.00 0.00 0.00 57 1020.8
20200704223207 70 325 0.0 6.0 0.00 0.00 0.00 59 1020.7
20200704222705 70 325 1.0 6.0 0.00 0.00 0.00 60 1020.8
20200704222206 70 325 1.0 8.0 0.00 0.00 0.00 58 1020.8
20200704221705 70 325 0.0 10.0 0.00 0.00 0.00 62 1020.8
20200704221205 70 325 1.0 10.0 0.00 0.00 0.00 61 1020.9
20200704220709 70 326 2.0 9.0 0.00 0.00 0.00 62 1020.9
20200704220205 70 338 2.0 8.0 0.00 0.00 0.00 59 1020.9
20200704215705 70 346 1.0 5.0 0.00 0.00 0.00 56 1020.9
20200704215204 70 346 1.0 6.0 0.00 0.00 0.00 59 1020.9
20200704214705 70 347 2.0 6.0 0.00 0.00 0.00 55 1021.0
20200704214209 70 347 1.0 6.0 0.00 0.00 0.00 57 1021.0
20200704213705 70 348 1.0 6.0 0.00 0.00 0.00 59 1021.0
20200704213207 70 348 1.0 6.0 0.00 0.00 0.00 58 1021.0
20200704212705 70 349 1.0 6.0 0.00 0.00 0.00 57 1021.1
20200704212205 70 349 2.0 6.0 0.00 0.00 0.00 58 1021.1
20200704211705 71 349 1.0 8.0 0.00 0.00 0.00 57 1021.1
20200704211207 71 0 1.0 8.0 0.00 0.00 0.00 58 1021.2
20200704210705 69 0 2.0 6.0 0.00 0.00 0.00 58 1021.2
20200704210206 69 0 2.0 5.0 0.00 0.00 0.00 60 1021.1
20200704205706 69 355 1.0 5.0 0.00 0.00 0.00 62 1021.2
20200704205205 69 355 0.0 0.0 0.00 0.00 0.00 63 1021.2
20200704204705 69 355 0.0 3.0 0.00 0.00 0.00 64 1021.2
20200704204204 68 355 0.0 5.0 0.00 0.00 0.00 65 1021.3
20200704203710 67 355 0.0 5.0 0.00 0.00 0.00 64 1021.3
20200704203205 67 355 0.0 5.0 0.00 0.00 0.00 64 1021.3
20200704202705 67 355 1.0 6.0 0.00 0.00 0.00 65 1021.3
20200704202206 67 346 1.0 8.0 0.00 0.00 0.00 68 1021.4
20200704201705 67 0 2.0 8.0 0.00 0.00 0.00 66 1021.3
20200704201212 67 0 2.0 8.0 0.00 0.00 0.00 66 1021.4
20200704200706 67 0 2.0 6.0 0.00 0.00 0.00 66 1021.3
20200704200206 67 0 2.0 6.0 0.00 0.00 0.00 65 1021.4
20200704195707 67 0 2.0 6.0 0.00 0.00 0.00 64 1021.4
20200704195204 67 0 2.0 6.0 0.00 0.00 0.00 64 1021.4
20200704194707 67 0 2.0 6.0 0.00 0.00 0.00 64 1021.4
20200704194205 68 0 1.0 6.0 0.00 0.00 0.00 65 1021.4
20200704193705 67 0 1.0 6.0 0.00 0.00 0.00 66 1021.4
20200704193205 66 0 1.0 6.0 0.00 0.00 0.00 66 1021.5
20200704192705 66 355 2.0 6.0 0.00 0.00 0.00 67 1021.5
20200704192212 66 355 2.0 6.0 0.00 0.00 0.00 69 1021.5
20200704191705 66 355 1.0 6.0 0.00 0.00 0.00 68 1021.6
20200704191205 65 336 1.0 8.0 0.00 0.00 0.00 69 1021.6
20200704190705 65 334 1.0 8.0 0.00 0.00 0.00 69 1021.6
20200704190210 65 334 2.0 8.0 0.00 0.00 0.00 68 1021.7
20200704185705 66 334 1.0 4.0 0.00 0.00 0.00 68 1021.7
20200704185205 66 317 0.0 5.0 0.00 0.00 0.00 69 1021.7
20200704184707 65 317 0.0 5.0 0.00 0.00 0.00 71 1021.6
20200704184205 65 317 1.0 5.0 0.00 0.00 0.00 70 1021.7
20200704183705 65 317 1.0 5.0 0.00 0.00 0.00 70 1021.7
20200704183211 65 315 1.0 8.0 0.00 0.00 0.00 70 1021.7
20200704182705 65 315 1.0 8.0 0.00 0.00 0.00 70 1021.7
20200704182205 65 315 0.0 7.0 0.00 0.00 0.00 70 1021.7
20200704181706 65 304 0.0 4.0 0.00 0.00 0.00 70 1021.8
20200704181205 65 304 0.0 4.0 0.00 0.00 0.00 73 1021.8
20200704180709 64 304 0.0 3.0 0.00 0.00 0.00 72 1021.8
20200704180206 64 321 0.0 4.0 0.00 0.00 0.00 73 1021.7
20200704175706 64 321 0.0 4.0 0.00 0.00 0.00 74 1021.7
20200704175206 63 321 0.0 4.0 0.00 0.00 0.00 74 1021.7
20200704174709 63 321 0.0 0.0 0.00 0.00 0.00 74 1021.7
20200704174206 62 321 0.0 0.0 0.00 0.00 0.00 76 1021.8
20200704173705 62 321 0.0 0.0 0.00 0.00 0.00 75 1021.8
20200704173205 62 321 0.0 3.0 0.00 0.00 0.00 75 1021.8
20200704172705 62 321 0.0 3.0 0.00 0.00 0.00 75 1021.8
20200704172206 62 321 0.0 5.0 0.00 0.00 0.00 76 1021.7
20200704171706 62 321 0.0 5.0 0.00 0.00 0.00 77 1021.7
20200704171205 61 321 0.0 5.0 0.00 0.00 0.00 77 1021.7
20200704170705 61 321 0.0 2.0 0.00 0.00 0.00 77 1021.7
20200704170205 61 321 0.0 1.0 0.00 0.00 0.00 76 1021.7
20200704165706 61 321 0.0 0.0 0.00 0.00 0.00 77 1021.7
20200704165205 61 321 0.0 0.0 0.00 0.00 0.00 78 1021.8
20200704164706 60 321 0.0 0.0 0.00 0.00 0.00 79 1021.7
20200704164211 60 321 0.0 0.0 0.00 0.00 0.00 79 1021.7
20200704163708 60 321 0.0 0.0 0.00 0.00 0.00 80 1021.6
20200704163205 60 321 0.0 0.0 0.00 0.00 0.00 79 1021.6
20200704162705 60 321 0.0 0.0 0.00 0.00 0.00 80 1021.6
20200704162204 59 321 0.0 0.0 0.00 0.00 0.00 80 1021.5
20200704161711 59 321 0.0 0.0 0.00 0.00 0.00 80 1021.5
20200704161205 59 321 0.0 0.0 0.00 0.00 0.00 80 1021.4
20200704160705 59 321 0.0 0.0 0.00 0.00 0.00 80 1021.4
20200704160205 59 321 0.0 0.0 0.00 0.00 0.00 80 1021.4
20200704155705 59 321 0.0 0.0 0.00 0.00 0.00 81 1021.4
20200704155205 59 321 0.0 0.0 0.00 0.00 0.00 81 1021.4
20200704154705 58 321 0.0 0.0 0.00 0.00 0.00 82 1021.3
20200704154207 58 321 0.0 0.0 0.00 0.00 0.00 82 1021.3
20200704153714 58 321 0.0 0.0 0.00 0.00 0.00 82 1021.3
20200704153207 58 321 0.0 0.0 0.00 0.00 0.00 82 1021.3
20200704152733 58 321 0.0 0.0 0.00 0.00 0.00 82 1021.2
20200704152205 58 321 0.0 0.0 0.00 0.00 0.00 82 1021.2
20200704151720 58 321 0.0 0.0 0.00 0.00 0.00 82 1021.2
20200704151205 58 321 0.0 1.0 0.00 0.00 0.00 83 1021.2
20200704150705 58 321 0.0 1.0 0.00 0.00 0.00 83 1021.1
20200704150205 57 321 0.0 1.0 0.00 0.00 0.00 83 1021.1
20200704145705 57 321 0.0 0.0 0.00 0.00 0.00 83 1021.1
20200704145211 57 321 0.0 0.0 0.00 0.00 0.00 84 1021.0
20200704144705 57 321 0.0 0.0 0.00 0.00 0.00 84 1021.0
20200704144205 57 321 0.0 0.0 0.00 0.00 0.00 84 1021.0
20200704143705 57 321 0.0 0.0 0.00 0.00 0.00 84 1021.0
20200704143206 57 321 0.0 0.0 0.00 0.00 0.00 84 1021.0
20200704142705 57 321 0.0 0.0 0.00 0.00 0.00 84 1021.0
20200704142219 57 321 0.0 0.0 0.00 0.00 0.00 84 1021.0
20200704141705 57 317 0.0 0.0 0.00 0.00 0.00 84 1021.0
20200704141207 57 317 0.0 0.0 0.00 0.00 0.00 84 1020.9
20200704140706 56 317 0.0 0.0 0.00 0.00 0.00 84 1020.9
20200704140205 56 317 0.0 0.0 0.00 0.00 0.00 84 1020.9
20200704135705 56 317 0.0 0.0 0.00 0.00 0.00 84 1020.9
20200704135205 56 317 0.0 0.0 0.00 0.00 0.00 84 1020.9
20200704134706 56 317 0.0 0.0 0.00 0.00 0.00 84 1020.9
20200704134204 56 317 0.0 0.0 0.00 0.00 0.00 84 1020.8
20200704133707 56 317 0.0 0.0 0.00 0.00 0.00 84 1020.6
20200704133205 56 317 0.0 0.0 0.00 0.00 0.00 84 1020.6
20200704132706 56 317 0.0 0.0 0.00 0.00 0.00 84 1020.5
20200704132205 56 317 0.0 0.0 0.00 0.00 0.00 84 1020.5
20200704131706 56 317 0.0 0.0 0.00 0.00 0.00 84 1020.5
20200704131205 56 317 0.0 0.0 0.00 0.00 0.00 84 1020.5
20200704130706 56 317 0.0 0.0 0.00 0.00 0.00 84 1020.5
20200704130209 56 317 0.0 0.0 0.00 0.00 0.00 84 1020.5
20200704125705 56 317 0.0 0.0 0.00 0.00 0.00 84 1020.5
20200704125205 56 317 0.0 0.0 0.00 0.00 0.00 84 1020.4
20200704124709 56 317 0.0 0.0 0.00 0.00 0.00 84 1020.4
20200704124205 56 317 0.0 0.0 0.00 0.00 0.00 84 1020.4
20200704123706 56 317 0.0 0.0 0.00 0.00 0.00 84 1020.3
20200704123206 56 317 0.0 0.0 0.00 0.00 0.00 84 1020.3
20200704122705 56 317 0.0 0.0 0.00 0.00 0.00 83 1020.2
20200704122205 56 317 0.0 0.0 0.00 0.00 0.00 83 1020.2
20200704121706 56 317 0.0 0.0 0.00 0.00 0.00 83 1020.2
20200704121208 56 317 0.0 0.0 0.00 0.00 0.00 83 1020.0
20200704120705 56 317 0.0 0.0 0.00 0.00 0.00 83 1020.1
20200704120206 56 317 0.0 0.0 0.00 0.00 0.00 83 1020.0
20200704115705 56 317 0.0 0.0 0.00 0.00 0.00 83 1019.9
20200704115206 56 317 0.0 0.0 0.00 0.00 0.00 83 1019.9
20200704114705 56 317 0.0 0.0 0.00 0.00 0.00 83 1019.9
20200704114206 56 317 0.0 0.0 0.00 0.00 0.00 83 1019.9
20200704113706 56 317 0.0 0.0 0.00 0.00 0.00 83 1019.9
20200704113207 56 317 0.0 0.0 0.00 0.00 0.00 83 1019.9
20200704112705 56 317 0.0 0.0 0.00 0.00 0.00 83 1019.9
20200704112206 57 317 0.0 0.0 0.00 0.00 0.00 83 1019.9
20200704111707 57 317 0.0 0.0 0.00 0.00 0.00 83 1019.9
20200704111316 57 317 0.0 0.0 0.00 0.00 0.00 83 1019.9
20200704110709 57 317 0.0 0.0 0.00 0.00 0.00 83 1019.8
20200704110421 57 317 0.0 0.0 0.00 0.00 0.00 82 1019.8
20200704105705 57 317 0.0 0.0 0.00 0.00 0.00 82 1019.7
20200704105206 57 317 0.0 0.0 0.00 0.00 0.00 82 1019.7
20200704104706 57 317 0.0 0.0 0.00 0.00 0.00 82 1019.7
20200704104207 57 317 0.0 0.0 0.00 0.00 0.00 82 1019.7
20200704103705 57 317 0.0 0.0 0.00 0.00 0.00 82 1019.7
20200704103208 57 317 0.0 0.0 0.00 0.00 0.00 82 1019.6
20200704102706 57 317 0.0 0.0 0.00 0.00 0.00 82 1019.7